Location: Biltmore Gardens
(41.6070°N, 83.4666°W)
Time: 14:27:07
(UTC+00:00)

Cosmos 1340 - Pass Details

Date: 14 July 2020
Orbit: 502 x 504 km, 81.2° (Epoch: 04 August)

Event Time Altitude Azimuth Distance (km) Brightness Sun altitude
Exits shadow 03:22:08 21° 74° (ENE) 1,192 4.3 -19.2°
Drops below altitude 10° 03:24:20 10° 40° (NE) 1,719 5.5 -19.4°
Sets 03:26:48 0° 25° (NNE) 2,609 6.7 -19.7°
